STARLINK-36901

Last updated on Fri Mar 27 2026 00:02:06 GMT+0000 (Coordinated Universal Time)

1 67974U 26038P 26085.50002314 .00066850 00000+0 20596-2 0 9996 2 67974 97.2851 96.3882 0002030 113.8483 350.7807 15.33368412 5906
UTC large
Height (km)
Speed (km/s)
/
Latitude / Longitude
Inclination (degrees)
Orbital Period (minutes)
Azimuth
Elevation
Range (km)
Doppler Factor

Next 0 passes for location: London (51.5072 / 0.1276)

Sorry there are no passes over London.